Precipitable_Water
0.95 0.94 0.94 0.91 0.95 0.93 0.82 0.79 0.78 0.79 0.79 0.80 0.80 0.79 0.77 0.77 0.81 0.84 0.84 0.86 0.85 0.84 0.85 0.86 0.87 0.91 0.93 0.91 0.92 0.89 0.84 0.87 0.72 0.78 0.87 0.85 0.82 0.83 0.86 0.87 0.87 0.86 0.88
0.95 0.91 0.87 0.88 0.84 0.82 0.77 0.74 0.74 0.72 0.76 0.78 0.80 0.80 0.80 0.81 0.83 0.81 0.79 0.79 0.77 0.77 0.80 0.82 0.83 0.88 0.89 0.91 0.89 0.88 0.86 0.89 0.79 0.69 0.79 0.76 0.77 0.79 0.84 0.84 0.90 0.92 0.95
0.80 0.82 0.82 0.81 0.78 0.75 0.73 0.72 0.72 0.71 0.72 0.74 0.77 0.77 0.79 0.82 0.80 0.81 0.79 0.77 0.77 0.78 0.79 0.78 0.78 0.83 0.81 0.86 0.84 0.82 0.86 0.87 0.85 0.74 0.71 0.77 0.77 0.79 0.80 0.88 0.93 0.97 1.00
0.79 0.78 0.77 0.77 0.75 0.73 0.71 0.69 0.69 0.70 0.69 0.68 0.69 0.73 0.77 0.80 0.82 0.78 0.76 0.73 0.75 0.77 0.79 0.80 0.79 0.80 0.79 0.83 0.83 0.81 0.86 0.82 0.81 0.77 0.73 0.71 0.73 0.77 0.80 0.79 0.81 0.90 0.88
0.71 0.72 0.72 0.74 0.74 0.72 0.69 0.68 0.68 0.68 0.68 0.69 0.69 0.74 0.79 0.80 0.79 0.78 0.74 0.73 0.76 0.78 0.80 0.81 0.82 0.81 0.82 0.85 0.85 0.82 0.84 0.80 0.81 0.76 0.72 0.71 0.68 0.70 0.71 0.82 0.78 0.89 0.95
0.66 0.65 0.68 0.69 0.70 0.69 0.69 0.68 0.67 0.67 0.68 0.69 0.68 0.70 0.75 0.79 0.81 0.78 0.78 0.76 0.80 0.80 0.79 0.83 0.84 0.84 0.83 0.82 0.84 0.85 0.86 0.81 0.76 0.74 0.72 0.68 0.70 0.75 0.80 0.84 0.85 0.83 0.74
0.62 0.62 0.63 0.65 0.66 0.67 0.67 0.67 0.66 0.65 0.66 0.67 0.68 0.69 0.69 0.73 0.78 0.80 0.81 0.80 0.81 0.84 0.86 0.86 0.86 0.87 0.87 0.85 0.84 0.87 0.86 0.85 0.84 0.80 0.73 0.73 0.73 0.78 0.85 0.84 0.84 0.81 0.80
0.57 0.59 0.61 0.61 0.61 0.64 0.65 0.66 0.66 0.66 0.65 0.65 0.68 0.70 0.70 0.73 0.76 0.80 0.83 0.84 0.83 0.86 0.88 0.90 0.91 0.88 0.88 0.84 0.83 0.80 0.81 0.84 0.85 0.85 0.86 0.86 0.88 0.87 0.90 0.89 0.84 0.84 0.90
0.49 0.52 0.56 0.58 0.58 0.58 0.60 0.63 0.64 0.64 0.65 0.65 0.66 0.69 0.71 0.74 0.77 0.80 0.82 0.81 0.81 0.84 0.89 0.91 0.90 0.90 0.90 0.87 0.84 0.79 0.82 0.84 0.92 0.92 0.93 0.92 0.89 0.91 0.94 0.89 0.78 0.80 0.80
0.44 0.47 0.49 0.53 0.55 0.56 0.57 0.56 0.59 0.62 0.63 0.64 0.65 0.69 0.72 0.74 0.79 0.82 0.82 0.82 0.79 0.79 0.84 0.87 0.91 0.90 0.86 0.84 0.82 0.79 0.75 0.79 0.84 0.85 0.84 0.86 0.86 0.87 0.92 0.91 0.88 0.78 0.77
0.40 0.42 0.44 0.46 0.48 0.52 0.54 0.56 0.56 0.55 0.59 0.63 0.64 0.67 0.70 0.72 0.73 0.74 0.77 0.78 0.78 0.78 0.79 0.82 0.84 0.86 0.86 0.87 0.86 0.84 0.80 0.84 0.85 0.84 0.81 0.80 0.81 0.84 0.89 0.92 0.92 0.87 0.77
0.36 0.36 0.39 0.41 0.44 0.46 0.47 0.50 0.52 0.54 0.54 0.57 0.63 0.65 0.68 0.70 0.72 0.73 0.75 0.75 0.75 0.75 0.77 0.85 0.88 0.86 0.84 0.84 0.85 0.85 0.86 0.87 0.84 0.80 0.77 0.74 0.75 0.78 0.84 0.89 0.92 0.93 0.93
0.33 0.35 0.35 0.37 0.40 0.41 0.42 0.44 0.46 0.48 0.51 0.53 0.53 0.57 0.61 0.65 0.67 0.70 0.70 0.70 0.73 0.73 0.77 0.79 0.80 0.85 0.84 0.85 0.86 0.87 0.84 0.81 0.79 0.74 0.72 0.73 0.76 0.84 0.85 0.85 0.88 0.89 0.92
0.28 0.30 0.32 0.35 0.36 0.36 0.38 0.39 0.41 0.43 0.45 0.49 0.50 0.50 0.51 0.57 0.62 0.65 0.65 0.67 0.68 0.67 0.69 0.71 0.74 0.76 0.80 0.82 0.84 0.84 0.85 0.81 0.78 0.76 0.74 0.80 0.82 0.83 0.82 0.86 0.80 0.84 0.82
0.25 0.26 0.27 0.30 0.33 0.35 0.35 0.36 0.38 0.41 0.44 0.44 0.45 0.47 0.48 0.50 0.53 0.60 0.61 0.60 0.62 0.64 0.63 0.64 0.65 0.68 0.70 0.74 0.78 0.80 0.83 0.83 0.80 0.79 0.77 0.76 0.78 0.84 0.81 0.86 0.82 0.79 0.75
0.22 0.23 0.25 0.25 0.28 0.31 0.32 0.34 0.36 0.38 0.41 0.42 0.44 0.46 0.46 0.49 0.52 0.55 0.55 0.56 0.60 0.64 0.62 0.60 0.61 0.64 0.66 0.69 0.72 0.74 0.81 0.81 0.83 0.82 0.82 0.81 0.78 0.78 0.79 0.83 0.81 0.77 0.74
0.20 0.21 0.22 0.23 0.24 0.26 0.29 0.29 0.30 0.33 0.36 0.38 0.40 0.42 0.44 0.45 0.47 0.50 0.51 0.54 0.55 0.57 0.55 0.59 0.60 0.62 0.64 0.68 0.71 0.70 0.71 0.77 0.83 0.81 0.82 0.84 0.83 0.80 0.78 0.77 0.78 0.79 0.76
0.18 0.19 0.20 0.20 0.20 0.21 0.24 0.26 0.28 0.28 0.29 0.31 0.35 0.37 0.40 0.41 0.44 0.45 0.46 0.48 0.48 0.53 0.52 0.53 0.55 0.58 0.62 0.64 0.65 0.67 0.71 0.74 0.77 0.78 0.79 0.81 0.81 0.78 0.79 0.78 0.77 0.75 0.75
0.17 0.17 0.19 0.19 0.18 0.18 0.20 0.22 0.24 0.25 0.25 0.27 0.30 0.32 0.34 0.38 0.39 0.40 0.42 0.42 0.42 0.43 0.47 0.49 0.52 0.55 0.58 0.60 0.62 0.65 0.68 0.72 0.77 0.78 0.79 0.79 0.81 0.80 0.78 0.78 0.78 0.80 0.78
0.16 0.17 0.18 0.18 0.16 0.16 0.16 0.18 0.20 0.22 0.23 0.24 0.24 0.27 0.31 0.32 0.31 0.33 0.35 0.37 0.38 0.39 0.41 0.43 0.46 0.49 0.51 0.55 0.58 0.60 0.61 0.64 0.70 0.73 0.76 0.77 0.79 0.79 0.78 0.78 0.78 0.75 0.76
0.16 0.16 0.16 0.16 0.15 0.15 0.15 0.16 0.16 0.18 0.19 0.22 0.23 0.25 0.27 0.28 0.28 0.29 0.31 0.32 0.33 0.35 0.36 0.38 0.40 0.43 0.47 0.49 0.51 0.54 0.56 0.57 0.62 0.67 0.71 0.74 0.74 0.75 0.77 0.77 0.73 0.74 0.73
0.15 0.15 0.15 0.15 0.14 0.14 0.14 0.15 0.15 0.15 0.16 0.18 0.20 0.23 0.25 0.24 0.25 0.26 0.27 0.28 0.30 0.32 0.34 0.35 0.36 0.38 0.41 0.44 0.46 0.49 0.51 0.54 0.58 0.62 0.65 0.68 0.69 0.69 0.70 0.72 0.71 0.71 0.69
0.14 0.14 0.14 0.14 0.14 0.13 0.13 0.13 0.13 0.13 0.14 0.15 0.16 0.18 0.20 0.22 0.23 0.24 0.25 0.26 0.27 0.28 0.30 0.31 0.33 0.34 0.36 0.38 0.41 0.43 0.45 0.49 0.55 0.59 0.59 0.61 0.62 0.63 0.66 0.66 0.65 0.65 0.65
0.14 0.13 0.13 0.13 0.13 0.13 0.13 0.12 0.12 0.12 0.12 0.12 0.13 0.15 0.16 0.18 0.20 0.22 0.24 0.25 0.25 0.26 0.27 0.28 0.29 0.30 0.31 0.34 0.37 0.39 0.41 0.45 0.51 0.55 0.60 0.58 0.58 0.61 0.63 0.63 0.63 0.64 0.63
0.13 0.12 0.12 0.12 0.13 0.12 0.11 0.11 0.11 0.11 0.12 0.12 0.12 0.13 0.14 0.15 0.17 0.19 0.21 0.23 0.24 0.25 0.25 0.26 0.28 0.29 0.29 0.30 0.31 0.34 0.39 0.41 0.43 0.48 0.54 0.56 0.55 0.57 0.60 0.61 0.61 0.61 0.61
0.13 0.14 0.14 0.13 0.13 0.12 0.11 0.10 0.10 0.10 0.10 0.11 0.12 0.12 0.12 0.13 0.14 0.16 0.18 0.20 0.21 0.22 0.24 0.25 0.26 0.27 0.28 0.29 0.31 0.32 0.33 0.36 0.39 0.43 0.47 0.50 0.51 0.53 0.54 0.57 0.58 0.59 0.57
Wind_Speed
38 37 37 37 35 36 36 35 35 36 36 36 36 35 35 34 34 34 33 32 31 30 29 29 29 28 28 27 27 27 27 26 27 26 25 25 25 24 24 23 23 23 22
37 38 37 37 37 37 36 36 36 36 36 37 36 36 35 35 35 34 34 33 33 33 32 32 31 30 30 30 29 29 29 28 28 27 27 26 26 25 24 24 24 24 24
38 38 37 37 37 37 37 37 37 36 37 37 37 37 37 37 36 35 35 35 34 34 34 34 33 33 32 32 31 30 30 30 29 29 28 26 26 25 25 25 25 25 26
38 38 38 37 37 37 37 37 37 37 37 37 38 38 38 38 38 37 36 36 36 36 36 36 36 36 35 34 33 32 32 31 31 30 29 28 27 27 26 26 27 26 27
38 39 38 39 38 38 38 38 37 37 38 38 38 38 39 39 39 39 38 38 37 37 36 36 35 35 36 35 35 34 33 33 32 31 30 30 28 28 28 27 28 28 28
38 39 39 39 39 39 39 38 38 38 37 38 38 39 39 40 40 40 39 39 39 38 38 37 36 35 35 36 37 36 35 34 33 33 32 31 31 30 30 29 29 29 28
38 38 39 39 39 39 40 39 39 38 38 38 38 39 39 40 41 41 41 40 40 39 39 38 37 36 36 35 36 36 36 36 35 34 33 33 32 31 31 31 31 29 29
37 38 38 39 40 40 40 40 40 39 39 39 39 38 39 39 39 40 40 41 40 40 40 39 39 38 37 36 36 37 37 37 37 37 36 35 34 33 33 33 32 32 30
38 38 39 40 40 40 40 41 41 41 40 40 39 39 39 39 39 40 40 41 41 41 40 40 40 40 39 38 38 38 38 38 37 38 38 37 37 36 35 33 33 31 29
38 39 39 40 40 42 41 41 41 41 41 41 41 41 40 41 40 40 41 42 42 42 43 43 42 41 39 39 40 41 41 40 39 39 38 38 38 37 37 35 33 32 30
39 40 40 40 41 41 42 43 43 43 42 42 41 41 41 41 40 41 41 42 43 43 43 43 43 43 43 43 43 43 43 40 39 39 38 37 36 36 35 35 35 34 33
40 40 41 41 41 42 42 43 43 43 43 43 44 44 43 42 43 42 42 42 43 44 45 44 44 45 44 44 43 43 42 41 40 39 38 38 36 36 35 35 35 36 35
40 41 41 42 42 42 43 43 43 43 44 44 43 44 44 43 43 43 43 43 43 44 44 45 46 44 44 44 43 42 42 42 41 40 39 39 37 36 37 35 35 35 35
38 40 41 42 43 43 43 43 44 44 45 45 45 45 45 45 45 44 44 44 44 43 44 45 45 45 45 44 43 41 41 41 41 41 40 40 39 38 38 37 36 36 36
35 36 38 40 41 42 43 44 44 45 45 45 46 46 47 47 46 47 46 45 44 44 45 44 44 44 44 44 44 45 43 43 43 42 42 41 41 41 41 40 40 39 39
32 34 35 37 38 40 41 42 43 45 46 46 47 47 47 49 49 48 47 47 47 46 45 44 44 43 43 44 43 44 45 45 45 45 45 44 42 42 42 42 42 41 40
31 31 32 33 34 36 38 40 42 42 43 45 45 45 46 47 47 48 48 49 48 47 47 46 46 45 45 44 44 44 44 45 46 46 46 44 44 43 43 43 42 42 41
32 32 32 32 33 33 35 36 37 38 39 41 43 43 45 45 46 46 46 46 45 45 45 45 45 45 45 46 45 46 45 45 44 44 45 46 46 44 43 42 42 43 43
33 33 33 33 34 34 34 36 36 37 38 39 40 41 42 42 43 42 42 42 43 43 43 43 43 43 43 42 43 44 44 44 43 43 42 42 43 43 43 43 43 43 42
36 36 35 34 34 35 35 36 36 37 37 38 38 39 40 40 40 40 41 41 41 41 41 41 41 41 42 43 43 42 43 45 45 45 45 45 44 44 43 43 43 42 42
35 36 37 37 36 36 36 36 37 37 38 38 38 37 37 38 39 39 40 40 40 40 40 41 41 41 41 41 41 42 42 42 43 44 44 44 45 43 43 43 44 44 44
35 35 36 36 36 36 36 36 36 36 36 37 37 38 38 38 38 39 39 40 40 40 40 41 41 41 41 41 41 41 42 42 43 43 43 43 43 45 46 45 45 45 45
34 35 35 36 37 36 36 36 36 37 37 37 37 38 38 39 39 39 40 40 40 41 41 41 41 41 41 41 41 41 41 41 42 43 43 43 44 44 44 44 45 45 45
31 33 34 35 36 36 37 37 38 38 38 38 38 38 38 38 39 39 40 40 40 40 41 41 42 41 41 41 41 40 40 40 41 43 44 43 42 41 41 42 42 43 44
32 32 32 32 33 33 34 36 36 36 37 38 39 38 38 39 39 39 39 40 39 40 40 40 41 41 40 41 40 41 41 41 41 41 42 43 43 42 42 41 41 42 42
32 33 33 33 33 33 32 33 33 34 36 37 37 37 38 37 37 38 38 38 38 38 39 39 40 40 40 41 41 40 40 40 41 42 42 42 42 41 41 41 42 41 41
Wind_Direction
217 218 218 220 220 221 223 226 228 230 232 233 235 236 236 237 238 240 242 244 247 250 252 254 257 261 264 268 271 274 277 279 282 284 283 285 284 285 283 281 281 280 280
218 219 221 222 224 225 227 229 231 233 234 234 235 236 237 238 239 240 242 245 248 251 253 255 258 261 264 267 270 272 274 277 279 281 282 283 282 282 281 280 279 277 278
221 221 222 224 225 227 229 231 232 234 235 235 237 237 238 239 240 242 244 247 250 252 254 256 258 260 264 266 267 271 273 275 276 277 280 282 281 280 279 278 278 277 277
221 223 224 226 228 229 231 233 234 235 237 238 239 239 240 240 241 243 246 249 251 253 255 256 258 260 263 264 265 269 271 273 274 274 277 278 278 278 277 277 278 278 278
224 225 227 229 230 231 233 234 236 237 238 239 240 240 240 241 242 244 247 249 251 253 255 257 259 261 262 263 265 267 269 271 272 272 274 275 276 275 274 277 278 279 278
226 227 229 230 231 233 234 236 237 238 239 240 241 241 242 243 244 246 248 250 251 253 254 256 258 260 262 263 264 266 267 268 269 271 272 273 273 273 274 275 277 278 280
231 230 231 232 233 234 236 237 238 239 240 241 242 243 244 244 246 247 248 250 252 253 254 255 257 259 261 265 265 264 265 266 268 270 270 271 271 272 273 273 275 275 277
232 233 233 234 235 236 237 237 239 240 241 242 243 244 245 245 246 247 248 249 251 253 254 255 256 258 260 263 265 264 265 266 267 268 269 270 270 271 271 273 274 275 275
235 235 236 236 237 238 238 239 240 241 242 243 244 245 245 246 247 249 250 250 251 253 254 255 256 258 261 262 263 264 264 266 267 267 267 269 269 269 269 272 271 270 271
236 237 238 238 238 239 239 240 241 242 243 244 245 245 246 247 248 251 251 251 252 254 255 256 257 258 260 261 263 265 265 266 266 267 267 268 268 268 268 266 267 267 268
238 239 239 239 240 240 241 241 242 243 244 244 245 245 246 248 249 251 253 253 254 255 255 256 257 259 261 262 263 264 264 265 265 265 266 267 267 266 265 264 264 264 266
239 240 240 240 240 241 242 242 243 244 245 245 245 246 247 249 250 252 253 254 256 256 256 258 258 260 261 261 262 263 262 262 263 263 264 265 265 264 264 264 264 263 264
240 241 241 241 241 242 243 243 244 244 245 245 246 246 248 249 251 253 254 256 256 258 258 258 259 260 260 261 261 261 260 261 261 261 262 263 262 264 264 265 264 263 261
242 242 242 243 243 243 243 244 244 245 245 246 246 247 249 250 252 253 255 255 257 258 259 260 259 259 258 259 260 259 259 260 259 261 262 261 262 262 262 263 263 262 261
243 243 243 244 244 244 244 245 245 245 245 247 247 248 250 251 252 255 255 255 257 258 260 260 260 259 258 258 257 259 258 259 258 260 261 261 261 260 261 261 261 262 261
245 245 246 246 245 245 245 246 246 246 247 247 248 249 250 252 254 254 255 256 257 258 258 259 258 258 258 258 258 259 259 258 258 261 260 260 260 260 260 260 259 261 260
245 245 246 246 245 246 246 248 248 247 247 247 249 250 251 253 254 254 255 256 256 256 256 257 258 258 258 258 258 259 261 260 260 260 258 258 259 260 260 259 259 260 258
247 248 246 247 247 248 248 247 247 247 248 249 249 251 252 253 254 254 255 255 254 254 256 256 257 258 258 258 259 259 261 260 259 261 258 258 258 259 258 259 259 258 259
248 249 249 248 248 250 250 250 249 250 251 251 251 251 252 253 253 252 253 252 253 253 255 257 256 256 257 258 259 258 258 257 258 259 258 258 257 257 257 258 258 257 258
248 248 250 249 250 251 251 250 250 251 251 251 251 251 252 253 251 251 251 251 252 253 254 254 255 257 258 258 258 258 259 258 258 258 257 258 258 258 257 256 257 259 258
249 250 250 250 252 252 253 252 253 252 251 250 251 251 253 252 252 251 251 252 252 253 254 255 256 257 258 258 257 257 258 259 257 257 256 257 256 255 255 257 259 258 259
250 249 249 250 251 252 251 252 251 251 250 251 251 251 253 252 252 252 252 253 253 253 255 255 256 256 258 258 257 258 259 259 258 259 258 256 255 257 256 258 258 259 259
250 250 250 250 249 251 251 251 251 252 252 253 253 253 254 254 254 253 253 253 253 253 255 256 256 256 259 257 257 258 259 260 259 258 258 257 258 258 258 258 258 258 258
250 251 250 250 250 252 252 252 252 253 252 252 252 253 253 254 254 253 253 254 254 254 255 256 256 256 259 257 256 257 259 262 261 259 257 256 257 258 258 258 258 258 260
251 251 251 251 252 252 253 253 253 253 254 254 253 254 254 255 254 254 253 254 255 255 255 255 254 255 256 257 256 258 260 262 263 261 257 255 257 257 258 258 259 260 261
252 252 252 252 252 252 253 254 254 254 253 253 253 253 253 253 254 254 253 254 254 255 255 255 255 256 256 256 256 259 261 262 262 260 257 255 255 257 259 259 259 260 261